Theta_e
320 317 318 316 314 316 316 316 315 315 316 316 316 315 316 317 317 316 318 319 319 317 317 318 319 318 318 320 336 351 350 350 345 340 338 342 339 346 344 344 343 345 344 337
322 321 318 318 317 317 317 316 315 315 316 317 317 318 318 318 318 319 319 319 321 320 319 320 319 319 319 322 347 353 351 344 341 338 336 343 344 339 336 338 338 339 339 336
321 323 321 320 318 318 316 316 315 315 316 319 319 319 319 321 320 319 320 319 321 322 321 320 319 319 336 357 352 351 351 349 346 346 348 346 339 332 333 334 335 336 336 334
321 321 323 321 319 318 318 317 316 316 316 319 318 317 320 320 321 322 320 318 321 322 324 324 338 351 353 357 354 352 349 346 348 345 344 341 336 334 333 333 334 333 332 331
322 322 322 320 319 319 317 317 317 316 316 320 318 317 318 319 321 321 320 322 321 323 324 331 345 346 357 357 354 352 348 346 345 346 343 338 336 336 335 333 333 333 332 333
322 321 320 319 320 319 318 317 316 315 315 317 318 319 318 318 322 322 322 324 322 323 326 327 328 329 333 353 354 353 349 347 344 341 340 338 338 339 338 335 333 333 332 331
324 323 320 321 322 318 317 314 315 320 317 318 318 319 317 319 323 322 325 323 321 324 326 327 326 325 332 336 345 353 353 348 345 340 338 336 336 339 340 337 335 334 335 335
328 325 322 322 320 318 315 314 318 322 322 320 321 320 319 319 324 325 325 322 324 324 325 328 328 332 339 340 341 346 350 349 349 344 338 335 335 333 336 341 338 337 343 341
326 328 324 321 321 320 317 317 317 321 324 326 322 321 322 321 324 323 323 326 325 325 327 330 332 336 338 339 339 342 342 345 351 348 344 340 340 343 344 343 345 343 342 340
322 325 324 323 321 321 319 318 319 321 328 326 324 327 333 330 329 323 327 325 325 325 326 330 333 336 335 331 330 331 336 340 340 341 341 341 342 342 345 346 344 341 338 335
321 327 328 327 322 319 319 320 319 319 320 325 330 335 330 332 331 329 327 325 323 322 325 326 328 331 330 329 327 328 330 332 332 333 337 337 337 337 334 330 326 326 330 327
319 325 327 327 325 325 327 320 322 324 327 327 330 331 330 329 329 329 327 327 327 328 324 322 323 326 325 325 324 324 325 327 329 329 328 331 329 328 328 329 331 329 330 333
321 326 330 329 327 326 326 322 323 324 328 331 334 332 330 329 327 327 326 328 326 328 326 322 321 321 323 323 322 322 320 320 325 324 324 324 325 325 322 323 325 329 328 326
327 329 329 330 332 330 330 330 329 325 327 330 331 333 331 328 325 322 322 322 323 322 326 325 321 322 322 320 318 318 317 317 317 320 319 318 317 318 318 319 319 320 320 321
328 331 330 329 326 327 327 328 329 331 330 330 329 330 332 327 322 322 321 322 324 321 321 324 321 319 318 318 317 316 315 314 315 315 315 315 314 314 314 314 314 315 315 316
325 327 326 328 329 326 325 325 328 329 331 330 326 330 328 326 323 322 321 321 321 321 321 320 319 318 316 316 315 314 314 314 314 314 314 314 314 314 313 313 312 311 311 310
326 326 326 330 329 327 327 322 322 326 329 329 329 324 326 325 322 320 319 319 319 318 318 317 316 316 316 315 315 314 314 313 313 313 313 313 312 311 310 310 309 309 310 310
320 319 320 324 327 324 321 318 319 323 325 326 327 323 324 321 317 317 317 317 317 317 316 314 314 314 314 314 314 314 313 313 313 312 312 311 309 308 308 308 308 309 308 308
317 322 320 320 320 321 324 322 323 325 324 323 321 320 319 318 317 316 316 315 314 313 313 314 314 314 314 314 313 313 312 312 311 310 310 308 308 307 307 307 307 307 308 309
316 317 320 319 321 323 324 321 319 322 326 321 321 320 319 318 319 318 314 313 313 313 313 313 313 313 313 313 312 311 310 309 309 308 307 307 306 306 306 306 305 304 305 305
319 319 320 321 320 324 322 320 319 321 325 320 318 317 316 318 316 315 315 314 314 314 314 313 312 312 312 308 306 306 307 307 307 306 306 306 305 304 303 302 301 301 301 300
319 317 316 318 319 322 323 323 326 322 318 318 315 314 314 313 315 315 314 312 312 311 310 309 309 308 307 306 306 306 306 305 305 305 302 301 300 299 299 298 298 298 298 297
317 319 319 319 320 321 320 320 319 316 316 315 314 313 312 312 311 310 309 308 307 306 304 304 303 304 304 303 303 301 300 299 299 299 298 297 297 296 296 295 295 294 295 295
320 318 318 320 322 321 320 317 316 314 313 314 313 312 310 308 307 306 305 303 302 302 302 301 301 300 300 300 299 298 296 296 296 295 294 294 293 294 293 292 293 294 294 295
316 318 317 319 319 316 316 314 313 312 310 310 308 306 305 304 303 303 302 302 301 300 300 299 299 298 298 297 296 295 293 293 292 291 291 291 291 291 291 292 292 292 293 294
316 318 317 318 318 318 315 311 310 308 305 304 303 303 303 303 302 302 301 301 299 298 297 297 296 296 295 293 293 292 291 290 289 289 289 289 290 290 291 291 292 293 294 295
Wind_Speed
14 8 18 16 14 7 11 15 13 16 21 17 19 20 12 11 9 10 9 9 10 11 13 25 35 39 33 20 16 38 39 41 36 24 20 17 16 4 6 11 9 10 11 4
14 24 13 11 12 16 18 20 19 16 15 11 7 6 8 12 9 9 9 8 8 7 9 9 24 33 24 22 24 32 38 33 32 35 24 30 35 17 14 15 15 16 13 9
21 7 16 18 19 20 21 21 15 14 17 4 7 4 7 5 7 8 7 7 2 3 9 9 10 21 16 24 32 35 42 45 42 37 36 32 26 19 22 19 22 23 22 23
18 16 20 23 23 21 19 21 19 20 15 5 6 5 5 6 11 7 8 7 6 9 8 4 8 9 26 29 34 38 43 42 38 45 47 48 36 31 27 41 33 30 30 27
17 17 24 21 24 21 18 16 17 19 8 3 9 3 5 7 11 13 9 8 9 9 11 11 12 17 14 17 28 31 30 29 37 42 39 39 34 40 30 32 27 29 30 30
15 11 18 19 20 24 19 15 16 9 3 5 7 4 5 5 8 10 8 10 10 11 11 12 15 20 11 12 21 24 25 25 31 35 35 39 37 26 25 27 27 27 29 33
11 15 10 16 16 11 16 8 4 3 7 8 9 6 8 10 7 8 14 10 10 10 10 10 10 9 20 29 6 22 27 28 28 31 29 29 19 20 21 19 22 29 31 34
10 6 19 12 13 8 9 7 4 6 4 3 7 15 12 19 4 14 16 12 13 11 10 10 9 10 20 26 25 7 15 19 27 31 35 32 24 20 16 19 28 31 29 33
2 6 6 17 17 14 7 10 7 2 6 4 4 6 6 16 12 15 15 15 12 11 10 10 10 14 19 22 21 19 19 5 17 25 28 33 30 26 27 22 20 19 23 8
2 7 15 15 18 20 8 6 11 3 1 6 6 2 7 12 12 8 14 11 10 10 11 10 8 13 20 28 32 30 25 25 23 19 12 9 10 9 7 7 8 1 5 13
2 4 8 6 17 12 10 15 6 6 7 5 1 2 5 9 6 8 10 9 10 12 9 9 9 19 22 25 30 30 32 32 32 29 21 19 21 12 10 9 8 9 9 7
18 5 3 5 15 14 13 6 7 5 3 2 5 3 3 8 11 9 8 12 14 11 15 8 8 17 20 23 26 27 27 27 23 22 24 24 24 24 26 26 23 21 20 12
11 5 1 7 7 6 6 3 1 5 4 6 4 3 6 7 8 11 9 11 12 14 21 10 9 9 14 20 23 27 26 27 20 20 19 19 18 16 18 19 15 9 9 10
7 4 5 5 2 3 5 2 5 0 4 4 6 5 5 9 9 8 9 10 13 16 14 17 8 11 20 22 23 26 26 25 24 21 19 18 19 18 16 15 14 12 11 11
4 6 9 8 0 4 3 4 3 4 2 3 6 9 5 6 7 7 8 7 9 7 11 7 13 13 18 21 24 26 24 23 20 18 15 13 12 13 14 13 13 12 11 10
4 2 4 3 4 8 2 5 16 8 3 2 6 2 7 8 8 4 5 7 19 15 13 14 14 13 14 18 22 21 19 18 16 15 16 15 13 13 11 11 11 11 12 12
4 5 5 5 10 10 3 9 9 6 7 9 4 10 12 7 10 4 12 17 17 15 14 12 10 8 14 15 14 13 14 14 16 17 18 18 18 17 18 18 18 18 17 17
2 1 2 6 13 4 4 6 4 10 11 13 13 9 16 12 10 14 12 12 12 11 9 7 8 13 12 10 9 9 8 9 11 14 17 18 19 20 21 22 21 21 21 21
5 3 3 4 2 7 9 7 4 10 15 14 13 14 15 16 17 9 9 10 9 8 6 7 10 10 10 9 7 6 5 7 10 14 16 17 19 19 20 20 23 26 25 21
5 4 4 2 2 2 5 5 8 3 7 7 9 9 7 5 6 3 7 9 8 9 8 8 8 5 4 6 8 9 9 9 9 9 13 15 17 18 20 19 18 20 22 22
3 4 3 3 3 4 2 6 6 5 3 8 11 9 9 8 6 6 6 6 8 6 4 1 3 6 6 11 11 10 10 11 9 10 12 13 12 14 17 22 22 21 21 23
3 4 1 2 3 3 6 7 5 5 6 10 9 8 8 8 7 5 4 6 4 3 7 10 6 8 12 16 16 15 17 16 14 14 14 14 16 17 19 22 24 24 24 23
3 3 4 4 3 5 10 11 8 7 9 7 7 6 7 7 6 7 6 8 6 13 18 22 21 20 23 25 24 21 19 18 16 16 18 18 21 24 23 22 24 23 17 17
5 3 3 5 6 9 12 6 8 8 7 7 8 7 8 7 8 7 7 6 8 16 16 19 20 18 18 22 20 16 17 16 16 19 22 24 24 20 22 22 18 15 16 16
3 1 3 6 11 12 8 7 7 9 9 12 14 11 9 9 8 9 8 7 9 14 17 18 17 16 17 18 15 17 16 18 20 20 19 18 17 20 19 16 18 18 19 19
5 4 2 3 6 9 4 6 9 13 13 11 9 10 13 12 10 8 7 10 12 13 16 16 15 15 14 13 14 16 19 21 18 15 14 17 17 17 18 20 19 19 17 17
Wind_Direction
228 218 223 217 227 235 258 245 235 231 239 235 231 231 199 222 242 262 244 238 216 205 217 215 220 232 235 226 200 179 173 172 163 165 161 198 223 205 160 171 160 168 192 191
221 227 221 234 229 233 244 250 257 278 268 209 179 205 201 210 220 219 232 246 224 231 232 213 210 220 220 215 179 160 176 180 184 181 188 184 190 192 200 170 158 175 189 196
218 227 216 236 227 225 232 243 254 254 280 230 143 227 211 252 245 240 239 198 211 306 233 215 197 208 157 142 157 155 160 162 165 175 180 178 178 171 170 186 190 207 216 222
219 228 224 220 236 228 230 229 247 259 269 229 145 239 245 245 250 233 224 191 119 63 23 149 147 135 156 155 160 161 162 169 174 175 174 175 172 195 202 196 203 211 211 205
226 204 232 220 225 238 242 243 235 246 265 289 279 105 251 232 240 228 216 155 113 91 75 77 80 82 124 148 153 169 166 169 174 183 184 178 189 205 217 214 211 201 204 214
238 238 235 236 234 218 243 241 245 223 220 281 239 152 272 246 259 171 168 135 115 103 93 78 65 53 63 193 172 172 180 186 191 192 196 198 213 209 207 205 205 212 218 218
272 250 248 261 279 230 230 217 224 191 207 229 198 256 227 258 268 175 133 124 100 96 94 82 70 53 45 42 174 183 177 181 199 205 209 214 219 216 218 205 203 215 223 230
206 215 213 233 229 239 219 173 168 188 194 222 243 223 232 249 88 111 120 118 97 85 89 87 70 66 62 53 45 54 216 213 201 210 217 216 228 232 234 238 231 224 228 234
181 269 285 225 240 237 217 234 211 120 96 4 242 291 268 233 127 119 118 106 107 101 90 93 87 91 78 67 54 67 57 253 217 224 231 233 244 246 247 243 239 238 236 242
140 273 254 236 211 245 215 180 222 124 59 180 263 355 29 13 21 131 113 114 110 107 94 92 88 97 84 76 65 58 62 63 65 65 49 7 328 312 302 282 267 195 189 223
133 133 296 317 215 203 186 213 193 165 176 199 206 127 318 340 2 48 71 62 69 25 118 121 114 103 99 80 75 65 65 69 67 67 62 56 49 51 45 38 13 5 320 295
217 166 249 277 313 322 304 185 161 124 222 154 150 221 332 27 15 60 46 67 47 32 355 92 99 98 96 89 79 71 65 66 65 70 72 73 65 62 69 70 71 60 54 41
177 178 176 319 355 321 276 201 315 131 114 181 103 259 113 40 29 35 38 44 56 67 307 108 102 101 107 102 97 81 68 55 50 51 47 47 51 50 48 61 60 61 54 34
325 146 174 210 172 263 202 69 32 115 123 151 159 183 170 109 89 80 79 59 44 32 339 298 81 78 74 74 71 66 57 50 44 47 45 36 31 30 33 36 38 33 25 17
340 151 144 178 148 301 76 86 14 317 20 133 164 165 159 139 114 118 111 132 136 116 269 77 70 69 65 67 64 64 54 45 38 31 20 25 18 6 0 4 7 6 8 8
243 111 111 93 190 231 219 218 171 229 138 83 329 207 178 176 124 228 187 183 87 81 90 76 68 67 64 63 61 56 49 37 29 16 3 357 358 348 343 353 357 359 356 348
125 164 189 152 155 199 277 215 191 183 163 103 257 278 192 163 162 160 90 82 87 86 82 79 81 80 80 78 69 54 45 27 15 4 356 357 3 13 8 1 357 357 352 343
249 27 79 107 168 182 135 67 168 184 164 153 163 186 159 139 103 75 62 79 76 76 73 81 92 90 78 70 96 85 53 25 3 356 354 3 4 358 352 348 347 344 341 334
59 350 44 106 158 134 38 20 35 97 33 75 96 89 99 100 83 53 66 71 76 64 60 63 58 62 63 37 66 61 42 29 11 356 354 357 353 349 348 344 335 327 327 333
71 18 101 58 79 95 185 30 6 74 67 16 80 89 98 129 104 150 109 95 77 66 48 45 34 21 9 8 43 47 28 12 355 3 352 347 344 342 340 350 9 351 341 336
69 25 69 39 91 71 89 36 336 75 160 67 60 66 65 80 134 153 117 113 129 146 172 217 260 276 356 53 43 30 9 354 350 342 335 340 9 13 358 347 346 342 338 327
128 116 196 18 85 122 334 31 65 134 76 76 57 43 76 91 126 137 120 106 93 74 50 38 45 49 48 36 34 26 16 12 13 20 37 14 359 349 346 337 331 325 325 325
111 152 161 139 164 104 74 108 108 113 115 97 91 65 53 41 45 50 49 51 46 53 52 39 36 29 27 26 29 44 19 16 10 10 6 356 340 335 330 331 325 326 321 318
70 62 108 82 39 92 105 95 94 90 88 97 90 62 54 42 27 33 45 32 44 48 47 35 28 19 10 8 12 40 24 3 355 346 338 335 333 330 323 323 322 314 313 308
182 94 151 91 119 77 77 108 115 90 62 55 53 48 38 33 29 27 26 46 48 43 28 22 22 16 7 4 18 17 7 350 345 337 332 329 324 322 321 316 311 303 302 298
26 26 38 102 118 107 64 47 80 79 74 58 49 38 50 45 31 24 24 44 40 24 27 20 11 3 12 12 359 349 336 333 336 332 324 319 319 317 313 315 310 315 311 318